RH
101 100 102 103 103 104 101 98 97 90 83 82 78 73 67 62 57 52 52 59 68 74 73 66 59 57 59 59 56 54 55 57 48 36 40 50 45 35 34 38 43 46 46 46 47 52 59 64 65 62 60 61 57 48 40 37 38 35 27 26 30 31 31 29 25 19 14 16 20 21 21 18 15 14 13 12 10 8 9 10 11 14 16 16 16
102 100 101 102 103 104 100 98 98 93 86 83 78 73 68 63 59 57 58 66 75 79 75 69 63 60 57 54 52 51 54 56 46 36 42 48 42 36 36 42 46 47 48 50 52 58 66 70 69 65 64 64 58 48 41 39 38 33 27 28 32 32 31 30 26 20 16 19 22 24 23 20 17 16 14 12 11 9 9 10 10 10 13 15 16
101 100 102 101 102 103 100 101 100 92 85 81 77 73 67 63 63 62 65 73 78 79 78 77 73 64 58 55 52 52 56 58 48 40 43 43 39 37 39 45 48 49 53 57 58 66 74 75 72 68 67 65 57 46 41 40 37 31 27 30 34 33 32 30 27 20 18 23 25 26 26 23 19 18 16 13 11 9 8 9 9 9 10 12 14
100 101 102 100 101 101 101 102 96 87 81 74 71 69 64 64 68 70 75 79 78 78 81 84 76 65 61 59 53 51 57 57 49 43 43 41 38 38 42 48 50 52 60 62 64 74 80 79 76 73 71 65 54 46 41 38 33 27 28 33 35 34 33 31 28 20 20 27 29 28 28 26 21 19 18 16 12 10 9 8 9 9 8 9 11
101 101 102 101 101 101 100 99 94 89 81 69 65 66 66 71 77 79 82 81 79 78 81 82 73 64 65 62 53 53 57 55 49 46 46 43 39 40 48 53 52 58 65 65 70 81 84 82 80 77 74 64 52 45 40 34 29 26 29 34 35 35 33 33 29 21 21 30 33 31 29 28 25 20 19 18 15 12 10 8 9 9 9 9 9
101 102 102 102 103 102 100 99 97 92 78 65 65 70 74 79 83 85 84 80 79 79 80 79 69 65 69 65 56 56 57 56 53 51 50 45 39 47 57 57 56 63 68 70 78 86 86 83 82 80 75 61 49 43 37 30 26 26 31 35 36 35 34 34 30 22 22 32 36 34 31 30 29 24 20 18 15 14 14 11 9 9 9 11 10
100 102 102 102 102 101 99 98 97 86 69 61 68 78 85 88 91 91 84 77 77 80 82 77 68 68 72 68 62 59 57 59 58 54 52 45 43 56 63 58 58 64 69 76 84 87 85 82 82 82 72 55 43 39 34 28 25 27 32 36 36 35 34 34 31 23 24 34 38 37 33 32 32 27 21 19 16 14 14 14 13 12 11 11 11
101 101 101 102 102 102 101 100 96 81 63 60 71 86 93 96 98 92 80 76 78 79 81 76 69 73 76 71 67 61 58 61 59 54 51 44 48 63 63 56 59 65 72 82 86 84 83 81 84 82 65 45 37 33 29 26 25 29 34 35 36 35 34 34 30 23 26 35 39 39 35 33 33 30 23 19 17 16 15 15 14 14 14 12 12
101 101 101 101 102 103 104 104 96 77 64 66 78 91 98 100 101 92 81 79 79 77 79 76 72 75 76 74 69 60 58 61 58 53 49 44 49 59 58 56 61 67 78 85 82 80 79 81 86 79 54 36 31 28 26 25 27 32 35 35 35 34 34 34 28 23 27 35 39 40 38 35 33 31 25 19 18 17 16 15 14 14 15 14 12
101 101 101 101 102 103 103 103 92 74 70 81 91 98 100 100 101 96 86 82 80 79 80 77 73 73 76 78 69 58 58 62 59 53 47 45 48 52 56 60 64 74 85 83 78 77 77 81 85 69 42 30 28 25 26 27 30 34 35 34 34 33 33 33 27 22 28 36 38 38 39 36 33 31 26 20 19 18 17 16 15 14 14 16 15
100 101 101 102 104 105 105 100 85 76 85 97 101 101 99 100 102 96 90 87 83 83 82 77 72 72 76 75 64 58 62 65 61 52 45 45 46 49 57 63 70 83 88 80 78 79 79 85 81 56 33 27 26 26 27 29 33 36 36 35 34 32 33 32 25 22 29 36 37 36 36 36 33 30 26 22 20 20 18 16 16 14 13 15 18
101 100 101 104 107 108 106 96 83 84 97 103 101 100 100 102 101 96 93 91 86 84 82 75 72 73 74 70 62 61 68 71 62 49 43 45 45 49 59 66 78 91 86 78 81 82 85 91 75 44 28 26 27 28 30 31 36 39 38 37 34 32 33 29 23 22 29 37 38 34 33 33 31 28 25 22 21 20 19 17 17 16 15 14 17
102 104 103 103 107 106 99 92 89 94 101 101 100 101 102 102 101 97 94 90 87 87 81 73 73 74 73 69 66 68 76 75 60 46 45 46 44 50 59 69 86 94 84 80 84 85 95 95 65 34 26 27 28 31 31 34 40 41 41 39 35 34 34 28 22 23 31 37 37 33 31 30 29 26 23 21 21 21 21 20 20 19 17 15 16
103 106 104 103 106 102 93 89 90 94 101 103 101 101 102 101 101 101 96 90 89 86 78 73 73 72 73 74 71 77 84 74 53 46 49 47 45 51 59 73 91 91 81 81 84 89 101 90 53 29 27 27 30 32 32 37 43 45 44 41 38 38 35 28 22 24 32 37 36 32 30 28 27 25 22 21 21 22 22 22 21 21 19 17 15
102 102 102 102 104 103 95 88 86 90 98 102 101 100 101 101 104 105 97 89 87 82 77 76 72 72 77 78 78 87 87 65 48 51 52 47 48 52 60 81 95 86 78 81 84 94 102 80 43 28 27 28 30 31 33 40 46 48 47 44 43 42 38 29 23 26 34 38 35 32 30 28 26 24 21 21 21 21 21 20 20 20 20 19 16
108 104 96 91 96 103 100 90 89 96 100 100 101 102 100 101 107 108 97 88 83 78 77 76 74 75 79 80 85 92 78 55 51 58 54 50 52 54 66 89 93 78 76 81 85 96 96 67 37 28 28 28 29 30 35 43 48 49 49 48 47 46 40 29 24 29 36 38 35 31 28 27 25 21 19 19 19 20 21 20 20 20 19 20 20
109 102 91 87 96 106 100 88 91 101 102 100 101 101 99 102 108 107 96 84 78 77 77 76 75 78 80 85 92 86 64 53 61 65 60 57 54 56 76 94 85 72 76 82 87 96 86 55 33 28 28 28 29 30 37 45 49 50 51 50 50 49 42 31 26 33 39 39 35 30 27 25 24 21 19 18 17 18 20 21 22 22 20 21 22
98 85 83 91 101 104 93 84 92 101 101 101 102 101 100 103 106 105 93 80 77 79 77 74 78 82 85 91 89 72 59 64 74 74 68 59 52 63 86 93 77 70 78 83 89 93 76 46 31 28 28 28 29 32 40 47 50 50 51 51 51 49 41 30 30 38 44 42 38 33 29 26 23 20 19 17 16 16 18 20 21 23 22 21 22
84 75 87 100 103 99 89 87 96 102 101 102 102 100 101 102 106 105 90 77 80 81 76 79 88 89 85 84 79 68 68 79 84 78 68 55 53 74 95 90 74 73 82 87 93 90 67 41 30 28 28 29 30 35 43 49 51 50 49 50 50 47 38 29 32 42 46 45 41 37 32 27 23 21 19 17 17 16 17 19 20 22 24 22 21
84 88 101 105 98 90 87 92 100 101 101 103 101 100 101 102 106 103 87 80 83 81 80 90 97 90 81 80 80 77 82 87 85 75 62 52 62 87 97 85 75 80 88 93 97 86 58 37 30 29 29 30 32 38 46 50 50 48 47 48 47 42 33 28 35 44 47 45 41 38 34 29 24 22 20 18 17 16 16 18 19 21 23 23 23
87 93 96 95 92 90 93 99 101 100 102 102 101 101 101 102 105 99 87 84 83 81 88 99 98 91 90 94 93 88 87 87 82 71 58 55 74 95 94 81 79 87 95 99 97 78 50 34 31 30 30 31 34 41 49 52 50 46 46 46 44 37 29 28 37 46 46 44 41 37 33 28 23 22 21 19 17 16 16 17 17 19 21 23 25
86 87 89 93 97 98 100 101 100 101 103 102 102 101 100 102 104 94 86 85 83 85 96 100 94 95 103 104 97 88 85 85 80 68 57 63 85 98 90 82 86 94 100 102 93 68 44 33 31 31 32 34 37 44 51 52 49 46 45 46 42 34 27 29 39 46 46 43 40 37 32 26 22 21 22 20 18 17 16 16 17 19 20 22 23
97 95 95 98 101 101 100 101 102 103 104 103 102 101 101 103 99 90 88 90 86 88 95 95 94 101 104 99 91 83 82 82 75 64 60 74 93 96 87 87 92 97 102 102 85 60 41 33 32 33 34 36 41 48 53 51 47 46 46 46 41 32 27 31 41 47 46 43 40 36 31 25 22 21 22 21 20 18 17 17 17 19 20 21 21
102 100 98 101 103 103 102 102 102 102 103 102 101 101 102 101 94 91 91 87 82 86 92 92 95 97 93 86 82 80 81 78 69 62 69 85 96 92 87 92 95 99 104 97 77 55 40 33 33 35 35 38 44 50 53 50 46 46 47 45 39 30 27 33 43 48 46 43 40 35 30 25 22 21 21 21 21 19 18 18 19 20 21 22 21
100 98 100 102 102 102 102 100 97 98 101 102 102 102 101 96 92 92 87 80 82 92 96 94 91 86 81 79 79 79 79 74 66 68 81 93 94 89 89 93 97 102 103 91 71 53 39 33 34 36 36 41 47 52 53 48 46 47 48 44 37 28 28 36 45 48 46 42 39 35 30 24 22 21 21 21 21 20 20 20 21 23 24 23 21
100 100 102 102 100 103 103 98 95 97 100 102 103 102 96 91 90 89 85 88 100 108 104 94 85 79 78 79 79 79 78 72 72 80 90 94 91 89 92 96 101 105 100 84 68 52 39 34 35 37 39 43 49 53 52 47 47 48 49 44 35 27 29 39 46 47 44 41 39 34 28 24 21 20 20 20 21 21 20 21 23 25 28 27 24
103 104 104 102 103 104 98 92 95 100 101 102 103 97 89 87 89 91 92 100 111 113 104 91 83 80 80 79 80 82 79 78 83 91 94 92 90 91 94 99 105 105 93 78 66 50 37 35 37 38 41 46 51 53 50 47 48 49 48 43 34 27 31 41 47 45 42 40 38 34 28 23 22 21 20 20 20 20 20 21 24 28 30 30 28
104 104 102 101 102 97 89 90 98 102 101 103 99 88 83 85 89 94 100 104 108 107 100 90 85 82 80 82 87 86 82 85 94 97 95 92 92 93 95 100 106 101 85 73 64 48 36 37 39 40 44 50 55 54 50 49 50 49 46 41 32 28 34 43 47 44 40 39 37 32 27 24 22 21 21 20 20 20 20 22 25 29 31 31 30
101 100 99 98 93 87 87 95 101 102 104 101 88 78 83 90 92 98 104 103 104 105 100 94 89 83 83 89 92 86 85 93 99 98 94 93 95 95 96 102 104 92 77 71 62 44 37 41 42 43 49 56 59 57 53 53 53 51 47 41 32 30 38 45 47 43 39 39 37 31 27 25 23 22 22 20 20 20 21 23 27 29 30 30 30
98 97 95 90 86 87 95 100 102 104 104 92 76 77 91 98 98 102 104 102 103 105 100 93 89 86 89 96 93 86 89 98 100 97 94 95 97 97 98 103 98 81 73 72 58 42 40 44 43 46 54 60 60 58 55 56 55 53 49 40 31 32 41 47 47 42 39 39 35 30 26 24 23 23 23 21 21 21 22 25 28 28 29 30 29
95 94 91 89 92 97 100 101 103 103 93 77 72 84 96 98 100 103 102 101 103 102 95 91 91 93 97 98 93 89 93 97 97 95 96 98 99 98 101 102 88 73 73 71 53 40 43 44 44 51 59 62 61 58 56 56 55 52 47 38 31 35 43 48 46 41 39 37 33 28 26 24 22 22 22 22 23 23 24 26 28 28 28 28 28
96 94 91 94 99 100 100 103 105 97 82 74 82 93 97 99 102 102 101 103 103 99 96 96 97 98 99 97 92 91 94 97 96 95 97 100 99 99 103 97 78 69 75 68 49 41 44 44 46 55 61 62 61 59 57 56 54 50 44 36 32 37 46 48 44 40 37 35 31 27 25 24 23 22 22 22 24 25 27 28 28 28 27 27 27
101 98 96 100 101 100 103 104 100 90 82 85 94 99 98 100 102 99 100 103 102 99 100 100 98 98 98 95 91 92 95 96 96 97 101 102 100 102 103 87 69 71 76 63 45 42 44 45 50 58 61 62 62 59 57 56 52 48 41 33 33 41 47 47 44 39 36 32 29 26 24 23 23 23 22 24 25 26 28 28 28 28 28 26 27
102 99 98 101 102 102 103 99 89 84 89 96 99 99 99 101 101 98 99 100 100 101 101 99 97 98 97 94 92 94 95 95 96 100 103 101 101 105 96 75 65 74 74 56 43 43 45 48 55 60 63 64 62 59 58 55 51 46 38 32 35 44 48 47 43 38 34 31 27 25 24 23 23 23 24 25 27 27 28 28 27 28 28 27 27
100 99 98 100 102 102 101 96 87 86 94 101 101 100 102 103 98 91 87 91 97 101 99 97 99 99 97 96 96 95 94 96 99 101 101 100 103 101 84 67 69 77 68 50 43 45 47 51 58 62 64 65 62 59 57 54 50 44 36 32 38 46 49 47 41 36 33 29 26 25 24 23 23 24 25 26 28 28 28 27 26 27 28 28 28
98 98 100 103 102 98 97 96 94 96 101 101 99 101 105 100 87 79 81 90 98 100 98 99 101 99 98 99 97 94 95 98 100 100 100 101 102 91 72 67 76 77 61 46 45 48 49 53 59 63 64 63 61 57 56 53 48 41 34 33 41 48 49 45 39 34 30 27 24 24 23 23 24 26 26 27 27 27 27 28 27 27 27 28 28
100 99 101 102 99 95 92 90 93 100 100 94 94 100 101 89 79 80 89 97 100 100 100 101 100 99 100 99 95 94 98 102 102 101 100 100 95 79 65 71 80 72 54 47 49 52 53 55 59 62 63 62 59 57 55 53 47 39 34 36 43 49 49 43 37 32 28 25 23 23 23 23 25 26 27 27 27 27 27 28 28 28 28 27 26
102 100 99 100 101 100 97 92 94 100 98 92 94 101 98 87 83 89 97 100 101 102 102 100 100 101 101 98 95 97 100 101 101 101 100 97 86 68 64 76 80 64 50 50 53 54 55 57 59 62 63 61 58 56 55 53 45 37 34 39 47 51 47 40 35 31 26 24 23 23 23 24 26 26 27 27 28 28 29 29 29 29 28 26 25
100 100 101 102 101 101 99 96 96 100 99 97 99 102 97 92 92 97 100 101 102 103 101 100 100 101 100 98 99 101 101 100 100 101 100 92 75 61 68 81 74 55 49 54 55 55 56 57 60 64 63 59 57 56 56 51 43 36 35 42 49 51 45 38 33 29 25 23 22 22 23 25 26 26 27 27 28 30 30 30 30 29 27 26 24
99 100 101 103 103 101 100 101 100 100 99 99 101 101 99 98 99 101 102 101 101 102 101 100 101 101 99 99 101 102 101 101 101 101 97 82 64 61 75 79 63 50 52 57 55 55 57 58 62 64 62 57 56 57 55 49 41 35 37 45 51 50 43 36 31 28 24 22 21 22 23 25 26 27 28 29 30 30 30 30 29 27 26 25 23
101 99 98 99 100 100 99 100 101 100 99 100 101 101 101 101 101 101 102 101 101 101 101 100 101 100 99 100 101 101 102 102 100 97 88 69 58 67 78 70 54 50 56 57 55 56 59 61 64 63 59 56 57 57 53 46 38 35 39 48 51 48 41 34 30 27 24 22 21 22 24 25 26 28 30 30 30 30 28 28 26 25 24 23 21
100 100 98 98 101 102 100 99 100 100 99 99 100 101 101 101 101 101 101 101 101 101 100 100 100 99 99 100 101 101 102 101 97 89 75 60 61 75 75 60 50 54 58 56 56 59 62 65 65 61 56 57 58 56 51 43 36 35 42 50 51 45 38 32 29 26 23 21 21 22 24 26 28 30 31 31 30 28 27 25 24 22 22 21 20
97 98 98 98 99 101 102 102 101 99 98 99 100 101 101 102 101 101 101 101 100 101 101 100 99 100 100 101 101 101 100 97 91 79 64 59 70 78 67 53 53 58 58 55 57 62 66 67 64 58 56 57 57 54 48 40 34 37 45 51 49 43 35 30 28 25 23 22 22 23 25 27 30 31 31 30 28 26 25 23 22 21 20 20 19
97 97 99 100 99 97 98 98 96 94 95 98 100 101 101 100 100 101 102 101 100 101 101 99 100 101 101 101 101 100 96 91 82 67 58 65 77 73 58 52 58 60 56 55 60 64 67 67 62 58 57 58 57 52 44 36 33 38 47 51 47 39 32 29 27 24 22 22 23 25 27 30 31 30 30 28 26 25 23 22 21 20 19 19 18
96 96 99 101 101 99 99 97 94 92 94 98 100 101 100 100 100 101 101 101 101 101 100 99 100 101 101 101 100 97 91 84 70 59 62 76 79 65 54 58 62 58 54 57 63 66 67 65 61 58 58 58 56 50 41 34 34 40 47 49 43 35 30 28 25 22 21 22 24 27 30 31 30 29 27 26 24 23 22 21 20 20 18 18 18
97 98 100 101 101 100 100 99 97 96 98 100 101 100 100 100 100 101 100 101 101 100 99 100 101 101 101 102 99 93 86 74 60 59 73 82 73 58 57 63 62 56 55 60 64 67 67 63 59 58 60 59 56 47 37 32 35 43 48 47 38 31 28 26 23 21 21 22 26 30 32 31 29 27 26 24 23 22 21 20 20 19 18 17 16
98 101 102 101 99 99 100 100 99 100 100 101 100 100 100 101 100 100 100 100 100 99 100 101 101 101 101 100 94 87 76 62 57 69 84 80 64 58 63 64 58 55 58 62 65 68 67 62 59 59 61 60 54 44 35 33 38 46 49 44 35 29 26 23 21 20 21 24 28 32 32 30 28 26 24 23 22 20 19 19 18 17 16 16 15
100 103 101 99 99 99 99 99 100 100 100 100 100 100 101 100 100 100 100 100 100 100 101 101 101 102 100 94 87 77 64 56 65 83 86 72 61 63 67 61 55 56 59 63 68 70 66 61 59 60 62 60 52 40 33 34 41 48 48 40 32 27 24 21 19 20 22 26 31 32 31 28 26 25 23 22 20 19 18 18 16 15 15 15 14
101 103 100 99 99 99 99 100 100 100 100 101 100 100 101 100 100 100 99 100 101 102 101 101 102 101 95 87 77 65 56 62 80 90 80 65 63 68 65 57 54 56 59 65 72 72 66 60 59 61 62 58 47 36 32 36 44 49 46 38 31 27 23 20 18 20 24 29 32 32 29 26 25 24 22 20 19 18 17 16 15 14 14 14 14
100 102 100 99 99 99 99 100 100 100 101 101 100 100 101 100 99 99 99 101 102 102 101 101 101 96 87 77 66 57 59 76 91 88 72 64 68 68 61 54 54 55 60 69 75 72 65 61 60 63 62 55 42 33 33 39 47 49 43 36 30 26 21 19 19 21 26 31 32 29 26 24 23 23 21 19 17 17 16 15 14 14 14 14 14
100 101 100 99 99 99 100 100 101 101 100 100 100 101 100 99 98 99 102 103 102 101 101 101 97 87 77 67 59 59 72 90 93 80 68 68 71 66 57 53 53 56 64 73 77 72 64 61 62 64 61 50 38 32 34 42 48 48 41 33 29 24 20 18 20 24 28 31 30 27 24 23 22 22 19 17 16 16 14 14 14 14 14 14 13
Wind_Speed
58 58 58 60 61 63 64 65 66 69 70 72 74 75 76 78 80 80 81 80 79 79 80 81 83 85 86 89 90 92 93 93 92 93 97 100 100 99 99 102 106 108 111 115 119 123 125 127 129 130 129 128 128 128 129 125 119 112 110 112 112 111 111 110 108 107 103 98 94 91 88 84 81 78 72 65 61 58 56 55 52 51 52 51 47
59 59 60 61 62 63 65 66 67 69 70 73 74 74 76 78 79 79 80 80 78 79 80 81 84 86 88 90 91 92 93 93 92 94 98 100 100 100 101 104 107 110 113 117 121 124 127 129 131 131 130 129 129 129 128 123 115 111 110 112 112 110 110 109 106 104 101 99 95 92 89 86 81 78 75 69 64 61 59 57 54 50 49 48 45
59 60 60 62 63 64 65 66 68 70 71 74 75 74 76 78 78 79 79 78 78 79 81 83 85 88 90 92 92 93 93 92 92 95 98 100 100 101 103 106 108 111 115 119 123 126 129 131 132 132 131 130 130 130 127 119 112 110 111 112 111 110 110 108 106 102 99 98 96 92 89 87 83 78 76 73 68 64 61 59 57 53 49 46 42
60 60 62 64 65 65 66 67 69 71 73 75 75 74 76 77 77 79 79 77 78 81 83 85 87 89 91 93 93 93 94 93 93 96 99 101 101 102 104 107 109 113 116 120 124 127 130 133 133 132 131 131 132 130 124 115 110 109 111 111 110 110 109 108 106 101 97 96 95 92 89 87 83 79 76 74 72 69 65 61 59 57 53 48 42
60 62 63 65 65 66 67 67 69 71 74 75 73 74 76 76 77 79 78 78 79 82 84 86 87 90 92 93 94 94 94 93 94 97 100 102 102 104 106 109 111 114 117 121 125 128 131 133 133 132 132 132 132 128 120 113 109 110 111 110 110 110 109 107 105 101 96 93 93 92 89 87 84 80 76 74 72 72 70 66 61 57 56 54 48
62 63 64 64 65 66 66 67 68 70 73 74 73 74 76 76 77 79 78 79 81 83 85 86 88 91 93 94 94 94 94 94 95 97 100 102 103 105 108 110 111 114 118 121 125 129 131 133 132 131 131 132 131 125 118 113 110 110 111 110 110 109 108 107 105 100 95 92 91 90 88 86 84 80 77 74 71 70 70 69 65 60 56 56 56
63 64 64 64 65 65 66 68 69 71 73 74 74 75 76 76 78 79 79 80 82 84 85 87 89 91 93 93 94 94 94 95 96 98 101 103 104 107 109 110 111 114 117 121 125 128 131 132 131 131 132 132 127 121 116 113 112 112 111 110 110 109 108 106 104 98 93 91 89 88 87 85 83 80 77 74 72 69 68 68 67 65 59 55 57
64 65 64 64 65 66 68 69 70 73 74 74 74 75 76 77 78 80 81 82 84 85 86 88 89 91 93 93 94 94 95 96 97 99 101 103 105 108 109 110 111 114 117 121 126 128 130 131 130 131 131 129 123 118 115 114 113 112 110 109 110 109 107 106 102 97 92 89 88 87 86 84 81 80 77 74 72 69 67 65 64 64 63 57 54
65 65 65 65 66 67 68 70 72 74 75 74 74 75 77 78 79 81 82 83 85 86 87 89 90 91 93 93 94 94 95 97 98 99 101 104 106 108 109 110 112 115 118 123 127 129 129 129 129 130 130 126 121 117 116 116 115 113 110 110 109 109 107 105 102 96 91 88 86 84 85 83 80 78 77 74 72 68 66 64 63 62 63 61 56
65 65 65 66 67 68 70 72 74 74 74 74 75 76 78 79 80 82 83 85 86 87 88 90 90 91 92 93 94 94 96 97 98 99 101 104 106 108 109 110 113 116 120 125 128 129 129 128 128 129 127 123 120 118 118 118 117 113 111 111 110 109 107 105 101 95 90 88 85 82 82 81 78 75 74 74 72 69 65 63 61 60 60 62 60
65 65 66 67 68 70 72 74 74 73 73 74 75 77 78 79 82 83 85 86 87 88 89 90 90 92 93 93 93 94 96 97 98 100 102 104 106 108 109 111 113 116 121 126 129 131 130 128 128 127 124 121 119 119 120 120 118 115 113 113 111 110 108 106 101 95 90 88 85 82 79 78 76 73 72 72 72 70 67 63 61 59 59 59 60
66 67 68 69 70 71 73 74 73 72 72 74 76 78 79 80 83 84 85 86 87 89 89 90 90 92 92 92 93 94 96 98 99 100 102 105 107 108 109 111 113 117 123 127 130 131 130 129 127 125 121 119 119 120 121 121 119 117 115 115 113 112 110 108 102 96 91 88 86 83 79 76 74 71 69 68 69 70 68 66 63 61 59 59 59
67 68 70 70 71 73 75 74 72 71 72 75 78 79 80 82 84 85 86 87 88 88 89 89 90 91 91 92 93 95 96 98 100 101 103 106 108 108 110 111 113 118 124 127 129 129 129 128 126 122 119 117 117 119 121 120 119 118 117 117 115 114 112 109 104 97 92 89 87 84 80 76 73 70 68 66 67 68 67 66 64 62 60 59 58
68 70 71 72 73 75 75 72 70 71 73 76 79 80 81 83 85 86 87 88 88 88 88 88 89 90 91 91 93 95 97 98 100 101 103 107 109 109 111 111 114 119 124 127 128 127 127 126 123 119 116 115 116 118 119 118 118 118 118 118 117 116 114 110 105 99 95 91 88 85 82 78 74 71 68 66 66 66 65 62 61 61 60 60 58
71 71 71 71 72 73 71 70 69 71 74 76 79 81 82 84 86 87 88 88 87 86 87 88 89 90 91 92 93 95 97 98 100 101 104 108 110 111 111 112 114 120 124 126 126 125 124 123 120 116 114 114 115 116 117 116 116 117 118 118 118 117 115 110 104 99 96 92 89 86 83 79 75 71 67 65 64 63 63 62 59 58 58 59 59
71 73 72 71 70 70 69 69 70 72 74 76 79 82 83 85 86 88 88 87 86 85 86 87 88 89 90 92 93 95 97 99 100 102 105 109 111 112 112 112 116 121 124 125 124 123 122 120 117 114 113 113 114 115 115 115 114 115 117 118 118 117 115 110 104 100 96 93 89 86 83 80 76 71 68 65 63 62 62 62 60 58 56 57 59
72 72 71 70 68 67 68 70 72 74 75 77 80 82 83 85 87 88 87 86 85 85 86 87 88 89 90 92 94 95 97 99 100 103 106 109 112 113 112 113 117 122 124 124 123 122 121 118 115 113 112 113 114 115 115 114 113 114 115 116 116 115 113 109 104 100 98 95 91 88 85 81 77 73 69 66 63 61 60 60 59 58 55 54 55
73 70 67 66 66 67 69 72 75 76 76 78 80 82 84 85 87 88 87 86 84 84 85 87 88 89 90 92 94 95 97 99 101 103 106 109 112 113 113 115 119 123 124 124 123 122 119 116 113 112 112 114 115 115 114 113 112 112 113 113 114 113 110 105 101 98 97 95 92 89 86 83 79 74 71 68 65 62 60 58 57 56 55 53 52
74 69 65 65 67 69 73 76 78 78 78 79 81 82 84 85 87 88 87 85 84 84 85 87 88 89 91 92 94 96 97 99 101 103 106 109 112 112 113 117 121 124 124 124 124 122 119 115 112 112 113 114 115 116 114 112 111 111 111 111 111 110 107 102 97 95 94 92 91 88 85 82 79 76 73 70 68 65 61 59 56 55 54 53 51
69 64 63 66 69 73 76 78 79 79 78 79 81 83 84 85 87 87 86 84 83 83 85 87 88 89 91 93 95 96 98 99 101 103 106 110 111 111 113 118 122 124 124 124 123 121 118 114 113 113 114 115 116 116 114 112 111 111 110 109 109 107 104 99 95 93 92 90 88 86 83 81 78 75 73 71 69 66 63 60 57 54 53 53 52
67 65 68 71 73 75 77 79 80 79 78 79 81 83 84 85 87 87 85 83 82 83 85 87 88 89 91 93 95 96 97 99 101 103 107 110 110 111 114 119 122 123 123 123 122 119 116 114 113 114 115 116 117 116 114 112 111 111 110 109 108 105 101 96 94 92 90 89 87 84 81 78 76 74 73 72 70 67 64 61 58 55 53 52 51
70 70 72 72 74 76 78 80 79 78 77 79 82 83 84 85 87 86 83 81 81 83 85 87 88 90 92 94 96 96 97 99 101 104 108 109 109 111 116 119 121 122 122 122 120 117 114 113 113 114 115 117 117 116 114 112 112 111 110 109 108 105 100 95 93 92 90 89 87 84 80 77 74 73 73 72 71 68 65 62 59 55 53 51 49
72 72 72 73 76 79 80 80 79 78 78 80 82 83 84 85 86 84 81 79 80 83 85 86 87 90 92 94 95 95 97 99 101 104 107 108 109 112 116 119 120 120 120 120 118 114 112 112 113 114 115 117 118 116 113 112 112 111 110 110 108 104 99 95 93 92 90 89 86 83 80 76 74 73 72 72 71 69 66 63 60 56 53 51 49
72 72 74 76 79 80 80 80 80 78 78 80 82 82 84 85 85 82 78 78 80 82 84 85 87 89 91 92 94 95 97 99 101 104 106 107 109 113 116 118 119 119 119 119 115 111 110 111 112 113 115 117 117 115 113 112 112 111 110 109 107 103 98 95 93 92 90 88 86 82 79 76 74 73 71 71 70 69 66 63 60 58 55 52 49
74 75 77 79 80 80 81 81 81 78 78 80 81 82 84 85 83 79 76 77 79 81 83 85 86 88 90 92 94 95 97 99 102 104 105 107 110 113 115 117 118 118 118 117 113 109 109 109 110 112 115 117 117 115 113 113 113 112 111 109 106 102 98 94 93 91 90 88 85 81 79 76 75 73 71 70 69 67 66 64 61 58 56 55 52
79 80 81 81 81 81 82 81 79 76 77 80 81 81 83 83 79 75 75 77 79 81 83 85 86 88 90 92 94 95 98 100 103 103 104 107 111 113 115 116 117 117 117 114 110 108 108 108 110 112 115 117 116 114 113 113 113 112 111 109 106 101 97 95 93 91 89 87 84 80 78 76 75 73 71 70 68 66 64 62 60 58 57 57 55
83 83 82 81 81 81 81 78 75 75 77 79 79 80 81 78 74 73 74 77 79 81 83 85 86 88 91 93 94 95 98 101 102 103 105 109 111 113 114 115 116 116 115 112 109 107 107 108 110 113 115 117 115 113 113 113 113 112 111 109 106 101 97 95 93 91 89 86 83 80 78 77 75 74 72 69 67 65 63 61 58 57 56 56 56
85 84 83 82 81 80 77 74 73 74 76 77 78 78 76 72 70 72 75 77 79 81 83 85 87 89 92 93 94 95 98 100 101 103 106 109 111 113 114 114 115 115 113 109 107 107 107 108 111 113 116 116 115 113 114 114 114 113 112 110 106 101 98 96 94 91 89 86 83 80 78 77 76 74 72 69 67 64 62 59 57 56 55 55 55
84 83 82 80 78 75 72 70 70 72 74 75 75 74 70 68 70 72 75 77 79 81 84 85 87 90 92 93 93 95 98 99 101 104 107 109 111 112 113 113 114 113 110 107 105 105 107 109 111 114 116 115 113 113 113 114 114 113 112 110 105 101 98 96 94 91 89 86 82 79 78 77 76 74 72 69 66 64 61 58 56 55 54 54 54
83 81 79 76 72 68 66 67 68 71 72 73 72 68 66 67 70 72 74 76 79 82 84 86 88 91 92 92 94 96 97 98 101 105 107 109 110 111 112 112 112 111 108 105 104 104 106 108 111 114 115 113 112 111 112 113 113 112 111 108 103 99 97 95 93 91 88 84 81 79 77 77 75 73 70 68 65 63 60 58 56 54 54 53 53
79 76 72 67 64 62 64 66 68 70 71 70 67 64 65 68 70 72 74 77 79 82 84 86 89 91 91 92 94 96 97 98 102 105 107 108 109 110 111 111 110 108 105 103 102 103 105 108 111 113 113 111 110 110 111 111 111 110 109 105 101 97 96 94 92 89 86 82 79 78 77 76 74 71 68 66 64 62 60 57 56 55 54 53 52
73 69 64 60 60 62 65 66 68 68 67 65 63 63 65 68 70 71 74 77 80 83 84 87 89 91 91 92 94 95 97 99 103 105 106 107 109 110 110 110 109 106 102 101 101 103 105 107 110 112 111 110 109 110 111 111 110 109 107 103 99 96 95 93 91 88 85 80 78 77 77 75 73 70 66 64 62 60 59 58 56 56 55 53 51
65 60 58 57 60 62 64 65 65 64 62 61 61 63 66 67 69 71 75 78 81 83 84 87 89 90 90 92 94 95 97 100 103 104 105 106 108 109 109 109 107 103 100 99 101 103 105 108 110 111 110 108 108 110 110 110 109 108 105 101 97 95 94 93 91 88 83 79 77 77 76 75 72 69 65 62 60 59 58 57 57 56 55 54 53
60 57 56 58 61 62 62 62 61 60 59 60 62 63 65 66 68 71 75 79 81 82 85 88 89 89 90 92 94 95 97 100 102 103 104 105 107 108 108 107 105 101 98 98 100 103 105 108 110 110 108 107 108 109 109 109 108 106 103 99 96 95 94 92 90 87 82 78 77 77 76 74 71 68 64 62 60 59 58 57 56 56 55 54 53
57 56 57 59 61 60 59 58 57 57 58 60 61 63 65 66 69 72 76 79 80 82 85 87 88 88 90 92 94 95 98 100 101 101 103 104 105 106 106 105 102 99 97 98 100 103 106 108 109 108 107 106 108 108 108 108 107 105 102 98 95 94 93 92 89 85 81 78 77 77 75 73 70 66 64 61 60 59 58 58 57 55 54 53 52
56 56 57 58 58 57 56 55 55 56 57 59 62 64 65 67 70 74 77 78 80 82 85 86 87 88 90 92 94 96 98 99 99 100 102 103 104 104 104 102 99 97 96 98 101 104 106 108 108 106 105 106 107 108 108 107 106 104 100 96 94 94 93 91 88 83 79 77 77 76 74 71 68 66 63 61 60 59 58 58 57 55 53 52 50
57 58 58 57 56 55 55 54 55 56 58 61 63 65 66 69 73 75 77 78 80 83 85 86 87 89 90 92 94 96 97 98 99 100 101 102 102 102 101 99 96 95 96 99 102 105 107 108 106 105 104 105 107 107 107 107 105 102 98 95 94 93 92 90 86 82 78 77 77 76 73 70 67 65 63 62 61 59 58 57 56 55 53 50 48
59 59 58 57 55 54 54 56 57 58 60 62 64 65 68 71 74 75 77 79 81 83 84 85 87 88 90 92 95 96 96 97 98 99 100 100 100 100 99 96 93 93 95 99 102 105 106 106 104 103 103 105 106 106 106 106 104 100 96 94 94 93 91 89 85 81 78 78 77 75 72 69 66 64 63 62 61 60 58 56 55 54 52 50 48
60 58 56 55 55 55 55 56 57 59 61 63 64 67 70 73 75 76 78 81 82 82 84 85 87 88 90 93 94 95 95 96 97 98 98 99 99 98 96 92 90 92 95 98 101 104 105 104 102 102 103 105 105 105 105 104 102 98 95 93 93 92 91 87 83 80 78 78 76 74 70 67 65 64 63 62 60 59 57 55 54 52 51 49 47
60 59 58 57 58 58 57 57 58 60 63 65 67 69 72 73 75 77 79 80 81 82 84 85 86 88 90 92 93 94 95 95 96 97 98 98 98 96 92 88 89 91 94 98 101 104 104 102 101 101 103 104 104 104 104 103 100 96 94 92 92 91 89 86 82 79 78 78 75 72 69 66 65 64 63 61 60 58 56 54 52 51 49 47 46
59 58 57 57 57 58 59 60 61 63 65 66 68 71 72 73 75 77 79 80 81 83 84 85 86 88 90 91 92 93 94 94 95 96 97 97 96 92 88 86 88 91 95 98 101 103 102 100 100 101 103 104 103 103 103 101 98 94 92 92 91 90 88 84 81 79 79 78 75 71 67 65 64 63 62 60 59 57 55 53 51 50 47 45 44
60 57 56 57 58 59 60 62 63 64 66 68 69 71 73 74 76 77 78 79 81 83 84 85 86 88 89 90 91 92 92 92 94 95 96 95 92 88 85 86 88 92 95 99 101 101 100 99 100 101 103 103 102 102 101 99 95 92 91 91 91 89 86 83 80 79 79 77 74 70 67 65 64 63 61 59 58 56 54 53 50 48 46 44 42
66 62 60 61 62 63 63 65 66 66 67 69 70 72 73 74 76 77 78 80 82 83 83 84 85 87 88 89 89 89 90 91 93 94 94 92 88 85 84 86 89 92 96 99 99 98 97 98 99 101 102 102 101 101 100 96 93 90 90 90 89 87 84 81 79 79 79 76 73 69 67 65 63 61 60 58 57 55 54 52 50 47 45 43 41
67 62 60 60 62 64 65 66 67 67 68 69 70 72 73 74 75 77 78 80 81 82 82 83 85 86 87 87 87 87 88 90 92 92 91 88 84 82 84 87 90 93 96 98 97 96 95 97 99 101 102 101 101 100 98 94 91 89 89 89 88 85 82 79 78 79 77 74 71 69 66 64 62 60 58 57 56 55 53 51 49 47 44 42 40
65 62 61 62 63 64 65 66 66 67 68 69 70 71 72 73 74 76 78 79 80 80 81 83 84 85 85 84 84 85 87 89 90 90 87 83 81 81 84 87 91 94 96 96 95 94 94 97 99 100 101 101 100 99 96 93 89 88 88 87 86 83 80 78 78 78 75 72 69 67 66 63 61 59 57 56 55 54 52 50 48 46 43 40 38
65 63 62 63 64 64 64 64 65 66 66 67 69 69 70 72 73 75 77 78 78 78 80 82 83 82 82 81 82 84 86 88 88 86 82 79 79 81 85 88 91 94 95 94 93 92 94 96 99 100 100 100 100 98 95 91 88 88 88 87 84 81 78 77 78 76 73 70 68 66 64 62 60 58 56 55 54 53 51 48 46 43 41 38 36
64 62 61 62 63 62 62 63 64 64 65 66 67 68 69 71 73 74 75 75 76 78 80 81 80 79 79 79 81 83 85 86 85 81 77 76 78 81 85 88 92 93 93 92 91 91 94 96 98 99 99 99 99 97 93 89 88 87 87 86 83 79 77 77 76 74 71 68 66 65 63 61 59 57 56 54 53 51 48 45 43 40 38 36 34
58 58 59 60 60 60 60 61 62 62 63 64 65 67 69 71 72 72 72 73 76 78 79 78 77 76 77 78 80 82 83 83 80 76 74 75 78 82 85 89 91 92 91 90 90 91 94 96 98 98 98 98 97 95 90 88 87 87 86 85 81 78 76 76 75 72 69 67 65 63 62 59 57 56 54 53 51 48 45 43 40 38 36 34 32
50 52 54 55 56 56 57 58 59 60 62 63 65 66 68 69 70 70 71 73 76 76 75 74 74 74 76 78 79 81 81 79 75 72 72 75 78 82 85 88 90 90 89 88 89 91 94 96 97 97 97 97 95 92 88 86 86 86 85 83 80 77 76 76 73 70 68 65 63 62 60 58 56 55 53 51 49 46 43 40 38 36 34 32 29
45 47 49 51 52 53 54 56 57 59 61 62 63 65 66 67 68 69 72 73 73 72 71 71 72 73 75 77 78 79 79 75 71 70 72 75 79 82 85 88 88 88 87 87 88 90 93 96 96 96 96 96 94 90 86 85 85 85 84 82 79 77 76 75 72 69 66 63 62 60 58 56 55 54 52 50 46 43 40 38 36 34 32 29 27
41 43 45 47 49 50 52 54 56 57 58 60 61 63 64 65 67 69 70 70 69 68 68 69 71 73 74 76 77 77 75 70 68 68 72 75 79 82 85 86 87 87 86 86 87 90 93 95 96 96 95 94 92 88 85 84 84 84 83 80 77 76 75 74 71 67 64 62 60 59 57 56 55 54 51 47 44 41 38 36 34 31 29 27 26
Wind_Direction
282 285 288 290 292 294 297 300 303 305 308 310 313 314 315 316 317 317 318 318 318 318 319 320 321 321 320 318 317 317 317 318 319 320 322 323 324 325 326 327 328 331 333 334 335 336 336 336 335 335 335 335 335 335 336 336 337 338 338 338 338 338 338 338 338 336 335 334 334 334 333 332 332 330 329 328 325 322 322 321 321 319 314 310 307
282 285 288 290 293 295 298 301 303 306 308 311 313 314 314 315 316 317 317 317 317 317 318 320 321 321 320 319 318 317 318 318 319 321 323 324 325 326 327 327 329 331 333 334 335 336 336 335 335 335 335 335 335 335 336 337 338 338 338 338 338 338 338 338 338 337 336 334 335 335 333 333 333 331 329 328 326 324 323 323 322 321 318 312 308
282 285 287 290 293 296 299 302 304 306 309 311 313 313 314 315 316 317 317 317 316 317 318 319 320 320 321 320 319 318 318 319 320 322 324 325 326 327 327 328 330 332 333 334 335 336 335 335 334 334 335 335 335 335 336 337 338 338 338 338 338 338 338 339 339 338 337 335 335 335 334 333 333 332 330 329 327 325 324 324 323 322 320 315 310
282 285 288 290 293 296 299 302 305 307 309 311 313 313 314 315 316 316 317 316 316 316 317 318 319 320 320 320 319 319 319 320 321 322 325 326 327 328 328 329 330 332 332 334 335 335 335 334 334 334 334 335 335 335 336 338 338 339 339 338 338 338 339 340 340 339 337 336 335 335 335 334 333 332 331 330 328 326 324 325 324 324 322 319 314
282 286 288 291 294 297 301 303 306 308 310 312 313 314 315 315 315 316 316 315 315 316 317 318 319 319 320 320 319 319 320 321 321 323 325 326 327 328 328 329 330 331 332 334 335 335 334 334 334 334 334 334 334 335 336 338 339 339 339 338 338 339 339 340 340 339 338 337 336 334 335 334 333 332 332 330 329 327 325 325 325 325 325 323 319
283 286 289 292 295 298 301 304 306 308 310 312 313 314 315 314 314 316 316 315 315 316 317 318 318 319 319 319 319 320 320 321 322 323 325 326 328 328 328 329 330 331 332 334 334 334 334 333 334 334 334 334 334 335 336 338 339 339 339 338 339 339 340 341 341 340 338 337 336 335 335 335 334 332 331 330 329 327 326 325 325 325 326 326 323
284 287 290 293 296 299 301 304 306 308 310 312 313 313 313 313 314 315 315 315 315 316 317 318 318 319 319 319 319 320 321 321 322 323 325 326 328 328 328 329 330 331 332 334 334 334 333 333 334 334 334 334 334 335 336 337 338 339 339 339 339 339 340 341 341 340 338 338 337 336 335 335 334 332 331 330 329 328 327 326 326 325 326 327 324
285 287 290 294 297 300 302 304 306 307 309 312 313 312 312 312 313 314 315 316 316 317 317 318 318 318 319 319 319 320 321 322 322 323 324 326 328 328 328 329 330 331 333 334 334 333 333 334 334 334 333 333 334 335 336 337 338 338 338 339 339 339 340 341 341 340 338 338 338 337 335 335 335 333 331 330 329 328 328 327 326 325 324 325 325
285 287 290 294 297 300 302 303 305 307 309 311 312 311 311 312 313 314 315 316 316 317 317 318 318 318 318 318 318 320 321 322 322 323 324 327 328 328 328 329 331 332 333 334 333 333 334 334 334 333 333 333 334 335 336 337 338 338 338 339 339 339 340 341 341 340 339 338 338 338 336 335 335 333 331 329 328 328 328 327 327 326 324 324 325
284 287 290 294 298 300 301 303 304 307 309 310 310 309 310 311 312 313 314 315 315 316 317 317 318 318 318 318 318 320 321 322 322 323 324 327 328 328 329 330 331 332 333 333 333 334 334 334 334 333 333 334 334 335 336 337 337 338 338 338 339 339 340 341 341 340 339 338 338 338 337 335 335 334 331 329 328 328 328 328 327 326 325 325 326
284 288 291 295 298 300 301 302 304 307 308 308 307 307 309 310 311 312 313 314 315 316 317 317 317 317 318 318 319 320 321 322 322 322 324 327 328 329 329 330 331 332 333 333 333 333 334 334 334 333 333 334 335 335 336 336 337 338 338 338 339 340 340 341 341 340 339 338 338 338 338 336 335 334 332 330 328 327 328 328 328 328 327 326 326
286 289 292 295 298 299 300 301 304 306 307 306 305 306 307 309 310 312 313 314 315 316 316 316 317 317 317 318 319 320 321 321 321 322 325 327 329 329 330 330 331 332 333 333 333 333 334 334 334 333 333 334 335 335 335 336 337 338 338 338 339 340 340 340 340 340 339 339 337 337 337 337 336 335 333 330 328 327 328 329 330 329 328 327 325
288 290 293 295 297 298 298 301 304 305 305 304 305 305 306 307 310 312 313 314 315 315 316 316 317 317 317 318 318 319 321 321 321 322 325 327 329 330 330 331 332 332 333 333 333 333 333 333 333 333 334 334 335 335 335 336 337 337 338 339 339 340 340 340 340 339 339 338 337 337 337 337 337 335 334 332 329 328 329 330 330 329 328 326 325
288 290 293 295 296 297 298 300 304 306 305 304 304 304 304 307 310 312 313 315 315 315 316 316 316 317 317 317 318 319 320 320 320 322 325 327 329 330 331 331 332 332 332 332 332 333 332 332 332 332 333 334 334 335 335 337 337 338 338 339 340 340 340 340 339 339 338 338 337 337 337 337 337 337 335 333 331 329 328 329 329 328 327 325 323
288 290 292 295 296 297 298 300 303 305 304 303 303 303 303 306 309 311 313 315 315 315 315 316 316 316 317 317 318 319 319 319 320 323 326 327 329 330 331 331 332 332 332 332 332 332 332 331 331 332 333 333 334 335 336 337 338 338 338 339 340 340 339 339 338 338 338 338 337 337 337 337 337 337 335 333 331 329 328 329 329 328 327 325 323
289 290 292 294 295 296 296 299 303 304 303 302 302 302 303 306 309 311 313 314 314 314 315 315 316 316 316 317 318 318 319 319 321 323 326 327 329 330 330 331 331 332 332 332 332 332 331 330 330 331 332 333 334 335 337 338 338 338 339 339 339 339 339 338 338 337 337 337 337 337 336 337 337 336 335 333 332 331 330 329 329 330 329 327 325
287 290 293 295 295 294 295 298 302 303 302 301 301 301 302 305 309 311 313 314 314 314 314 315 315 316 316 317 318 318 318 319 321 323 325 327 328 329 330 330 331 331 331 331 332 332 331 330 330 331 332 333 334 336 337 338 338 339 339 339 339 338 338 338 337 337 337 337 337 337 336 336 336 336 334 333 332 332 331 330 330 330 330 329 327
287 291 294 293 291 291 293 297 301 303 301 300 300 300 302 305 308 311 312 313 313 313 314 314 315 315 316 316 317 318 319 320 321 323 325 326 328 329 329 330 331 331 331 331 332 331 330 330 330 331 332 333 335 337 338 338 338 339 339 339 338 338 338 338 337 337 337 337 337 337 336 336 335 335 334 333 332 332 332 332 331 331 331 330 329
288 292 293 290 288 290 292 296 301 302 301 299 299 300 301 304 308 311 312 312 312 313 313 313 314 315 315 316 316 318 319 320 321 323 325 326 328 329 329 330 330 331 331 331 331 331 330 329 330 331 332 334 336 337 338 338 338 339 339 338 338 338 337 337 337 337 337 337 336 336 335 335 335 334 333 333 332 333 333 333 333 332 332 331 330
289 291 289 287 288 290 292 296 300 301 300 299 299 299 301 304 307 310 311 311 311 312 312 312 313 314 314 315 316 317 319 320 321 323 325 327 328 328 329 329 330 330 331 331 330 330 329 330 330 331 333 335 336 337 337 338 338 338 338 338 338 338 337 337 337 337 337 337 336 336 335 334 334 333 333 332 332 333 333 333 333 333 333 333 332
288 287 285 286 288 290 293 297 299 300 299 298 298 299 300 303 306 309 310 310 310 311 311 311 312 312 313 314 315 317 319 320 322 323 325 327 328 328 328 329 329 330 330 330 329 329 329 330 331 332 334 335 337 337 337 337 338 338 338 338 338 338 338 337 337 337 337 337 336 335 335 334 334 333 333 332 332 332 333 333 334 334 334 335 334
287 286 286 287 289 290 293 296 298 298 298 297 297 298 299 302 306 308 308 309 309 310 310 310 311 312 312 313 314 317 318 320 322 324 325 327 327 328 328 329 329 329 329 329 329 328 329 330 331 332 334 335 336 336 336 337 337 338 338 338 338 338 338 338 338 338 337 337 336 335 334 334 334 334 333 332 331 332 333 333 334 334 334 334 334
285 285 286 287 288 290 293 295 297 297 296 295 296 297 298 301 305 307 307 307 309 309 309 310 311 311 312 313 314 317 318 320 322 324 325 326 327 328 328 328 328 329 329 328 328 328 329 330 331 333 334 335 336 336 336 336 337 338 338 338 338 338 338 338 338 338 338 337 336 335 334 334 334 334 333 332 331 332 333 333 333 334 334 334 334
282 283 285 287 289 291 292 294 296 296 295 294 295 296 297 301 305 305 305 307 308 308 309 310 311 311 312 313 315 317 319 321 323 325 325 326 327 328 328 328 328 328 328 328 328 328 329 330 331 332 334 335 335 335 335 336 337 338 338 338 338 338 338 338 338 338 338 337 336 335 334 334 334 334 333 332 332 332 333 333 333 333 333 333 333
280 282 285 286 288 289 291 293 295 295 293 293 294 295 297 301 303 304 304 306 307 307 309 310 310 311 313 315 317 318 320 322 324 325 325 326 327 328 328 328 328 328 327 327 327 328 329 330 331 332 334 335 335 335 335 336 337 338 338 338 338 338 338 338 339 339 338 337 336 335 334 334 334 333 333 333 332 332 333 333 333 333 333 332 331
280 282 284 285 287 289 291 293 294 292 291 291 292 294 298 301 302 302 303 305 306 307 308 309 310 312 314 316 318 319 321 323 324 324 325 326 327 328 328 327 327 327 327 327 327 328 328 330 331 333 334 334 334 335 335 336 337 337 338 338 338 338 338 338 339 338 338 337 336 335 334 334 333 333 333 333 333 333 333 333 333 333 332 332 331
280 281 283 285 286 288 290 292 291 289 289 290 292 295 298 300 301 301 303 304 305 306 307 308 310 313 315 317 319 320 322 323 323 324 325 326 327 328 327 327 326 327 327 327 327 327 329 330 332 333 334 334 334 335 335 336 337 337 338 338 338 338 338 339 339 338 338 337 337 335 334 334 334 334 333 333 333 333 333 333 333 333 332 332 331
279 280 282 284 286 288 290 289 287 286 287 289 293 297 299 299 299 301 302 303 304 306 307 309 311 314 316 318 319 321 322 323 323 324 325 326 327 327 327 326 326 326 326 326 327 328 329 331 332 333 334 334 334 335 336 337 337 337 338 338 338 338 338 338 339 338 338 338 337 336 334 334 334 334 334 333 333 333 333 333 333 333 332 331 331
279 281 283 284 286 288 288 286 285 285 287 291 295 298 298 297 299 300 301 302 304 305 307 309 312 314 316 318 320 321 322 322 323 324 326 326 326 326 326 325 325 326 326 326 327 328 330 331 333 333 333 334 334 335 336 337 337 337 338 338 338 337 338 338 338 338 338 338 336 336 335 334 334 334 333 333 333 333 334 334 333 332 332 331 331
280 281 283 285 287 286 285 283 283 284 288 294 297 297 295 296 298 299 300 302 304 305 307 309 312 314 317 318 320 321 322 322 323 325 326 326 326 325 325 325 325 326 326 326 327 329 330 332 332 333 333 334 334 335 336 336 337 337 337 337 337 337 337 338 338 338 338 337 336 335 335 334 334 334 334 333 333 333 333 333 333 332 331 331 330
281 282 284 286 285 283 281 281 281 285 291 296 296 294 294 296 297 298 299 302 303 305 307 310 313 315 317 318 320 321 322 322 323 325 325 325 325 324 324 325 325 326 326 327 328 329 331 331 332 333 333 334 334 335 336 336 336 337 337 337 336 336 337 337 338 338 338 337 335 335 335 334 334 334 334 333 333 333 333 332 332 331 331 330 330
282 283 285 284 281 279 279 279 283 289 294 295 293 292 294 296 297 298 300 302 303 305 308 311 313 315 317 319 319 321 321 323 324 325 325 324 324 324 324 325 325 326 326 327 328 329 330 331 332 333 333 333 334 335 335 336 336 337 337 336 336 336 337 337 338 338 337 336 336 335 335 335 334 334 334 334 333 332 332 332 331 330 330 329 329
281 282 282 280 278 277 277 280 287 292 293 291 291 292 294 295 297 299 300 302 304 306 309 311 314 316 318 318 319 320 322 323 324 324 324 323 323 323 324 325 325 326 326 327 328 329 330 332 332 333 333 334 334 335 335 336 336 337 337 336 336 336 337 337 337 337 337 336 336 335 335 335 335 334 334 334 333 332 331 331 330 329 329 328 328
279 279 278 276 275 275 279 285 290 292 290 289 290 292 294 296 298 300 302 304 305 307 310 312 315 317 317 318 319 320 322 324 324 324 323 322 322 322 323 324 325 326 327 327 328 329 331 332 332 333 333 334 334 335 335 335 336 337 336 336 336 336 337 337 337 337 336 336 336 336 335 335 335 335 334 334 333 332 331 330 329 329 328 328 327
277 277 276 275 275 278 283 289 290 290 288 288 289 292 294 296 298 302 304 305 306 308 311 314 316 317 317 318 319 321 323 324 323 323 322 321 321 322 324 324 325 326 326 327 328 330 331 332 332 333 333 334 334 335 335 336 336 337 336 336 336 336 337 337 337 336 336 336 337 336 336 335 335 335 334 334 333 331 330 329 329 328 327 327 326
275 274 274 275 278 283 287 289 288 287 287 288 290 293 294 296 299 303 305 306 308 310 313 315 316 316 317 318 319 321 323 323 323 322 321 321 321 323 324 325 325 326 327 328 329 330 331 332 332 332 333 334 334 335 335 336 336 337 336 336 336 336 337 337 336 336 336 337 337 337 336 336 335 335 334 333 332 331 330 329 328 327 327 326 325
272 272 274 277 282 285 286 287 287 286 286 289 292 294 295 297 301 304 306 308 309 312 314 315 315 316 317 318 320 322 323 322 321 321 320 320 321 323 324 325 326 326 327 329 330 331 331 332 332 332 333 334 334 335 336 336 337 337 336 336 336 336 337 336 336 336 337 337 337 337 336 336 335 334 333 333 332 331 330 328 327 327 326 325 324
269 272 275 279 282 283 284 285 286 286 287 290 293 295 296 299 302 305 307 309 310 312 314 315 315 316 317 318 320 321 322 321 320 320 320 320 322 323 324 325 326 327 328 329 330 330 331 331 332 333 333 334 335 335 336 336 337 336 336 336 336 336 336 336 336 336 337 338 338 337 336 336 335 334 333 332 331 330 329 328 327 327 326 326 325
268 271 275 278 280 283 284 285 285 287 289 292 294 296 298 301 303 305 307 309 310 312 313 314 315 316 317 319 320 321 320 320 319 319 319 321 322 323 325 326 326 327 329 329 329 330 331 331 332 333 334 334 335 336 336 336 336 336 336 336 336 336 336 336 336 337 337 338 338 337 336 335 335 334 333 332 331 330 329 329 328 327 327 326 325
267 269 272 276 280 282 283 284 285 288 291 293 295 297 299 300 302 304 307 309 310 312 313 314 315 316 318 319 320 319 319 319 318 319 320 322 323 324 325 326 327 328 329 329 329 330 331 331 332 333 334 335 335 336 336 337 336 336 336 336 336 336 336 336 337 337 338 338 338 337 337 336 335 334 333 332 331 330 330 329 328 328 328 327 326
267 269 271 275 279 280 281 283 286 290 292 294 295 297 298 300 302 304 307 308 310 311 312 314 315 316 318 319 319 318 318 318 318 319 321 322 323 324 325 326 327 328 329 329 330 330 331 332 333 334 334 335 335 336 337 337 336 336 336 336 336 336 336 336 337 338 338 338 338 337 337 336 336 334 333 332 331 331 330 330 329 330 330 328 327
265 268 271 275 277 279 281 284 287 290 292 293 295 296 297 299 302 304 306 308 309 311 312 314 315 317 318 318 317 317 317 317 318 320 321 322 324 325 326 326 328 329 329 330 330 331 331 332 333 334 334 335 336 336 337 337 337 336 336 336 336 337 336 337 338 339 339 338 338 337 337 337 336 335 333 333 332 332 331 331 331 331 331 330 329
263 266 271 274 275 277 280 284 286 289 291 292 294 295 297 299 301 304 306 307 309 311 312 314 316 317 317 317 316 316 316 317 318 320 322 323 324 325 326 327 329 329 330 330 331 331 332 333 333 334 335 335 336 337 337 337 337 336 336 336 337 337 337 338 339 339 339 338 338 338 338 337 337 335 334 333 333 333 332 332 333 334 333 332 331
263 267 271 273 276 278 280 283 285 287 289 291 293 294 296 298 301 304 306 307 309 311 312 314 316 316 316 316 315 315 316 317 319 321 322 324 325 326 327 328 329 330 330 331 331 332 333 333 334 334 335 336 337 337 338 337 337 336 337 337 337 337 338 339 339 340 339 338 338 338 338 338 337 336 335 335 335 334 334 334 335 335 334 333 332
264 267 270 273 276 279 281 283 285 287 288 290 292 294 296 299 302 304 306 308 310 311 313 314 315 315 315 314 314 315 316 318 320 322 323 325 325 326 328 329 330 330 331 331 332 332 333 334 334 335 335 336 337 338 338 337 337 337 337 337 337 338 339 340 340 340 339 339 339 339 339 338 337 337 337 337 336 336 336 336 336 335 335 334 333
263 266 270 273 275 278 281 283 285 286 288 290 292 295 298 300 302 304 306 308 310 311 313 314 314 314 314 313 314 315 317 319 321 323 324 325 326 327 329 329 330 330 331 331 332 333 334 334 335 335 336 337 338 338 338 337 337 337 338 338 338 339 340 341 341 340 340 340 340 340 339 339 339 339 339 338 338 337 337 337 336 336 335 334 333
262 265 269 272 275 278 280 282 284 286 288 290 293 296 299 301 303 305 307 309 310 312 313 313 313 313 312 313 314 316 318 320 322 324 325 325 326 328 329 330 330 331 331 332 333 333 334 335 335 336 337 338 338 338 338 337 337 338 338 338 339 340 341 342 342 341 341 341 341 341 340 340 340 340 340 340 339 338 338 338 338 337 336 336 335
261 264 269 273 275 278 280 282 284 287 289 292 295 298 300 302 304 306 308 309 310 312 312 312 312 312 312 313 315 317 319 322 324 325 325 326 328 329 330 330 331 332 332 332 333 334 335 335 336 337 338 339 339 339 338 338 338 338 339 339 340 341 342 343 343 343 343 343 342 342 341 341 342 342 342 341 340 340 340 340 340 339 339 339 338
263 266 269 273 276 279 281 283 285 288 290 293 297 299 301 302 305 306 308 309 310 311 311 311 311 311 312 314 316 318 321 323 325 325 326 327 329 330 330 331 332 332 333 333 334 334 335 335 336 338 339 339 339 339 338 338 339 339 339 340 341 342 343 343 344 344 344 344 343 342 342 343 344 344 343 342 342 342 343 343 342 342 342 342 341
265 266 270 273 276 279 281 284 286 289 292 295 298 299 301 303 305 307 308 309 309 310 310 310 310 311 313 316 318 320 323 325 325 325 326 328 330 330 331 332 333 333 333 334 334 335 335 336 337 339 339 340 340 339 339 339 339 340 340 341 342 342 343 344 345 345 345 345 344 344 344 346 346 346 344 344 345 346 346 346 345 345 346 345 343
264 267 271 275 277 280 282 285 288 291 294 296 298 300 302 304 306 307 307 308 308 309 309 309 311 313 315 317 319 322 324 325 325 326 328 330 330 331 332 333 334 334 334 335 335 335 336 337 338 340 340 340 340 340 339 339 340 341 342 342 343 343 345 346 346 346 346 346 345 346 347 349 348 347 346 346 348 350 350 349 349 349 349 348 347